Tracking 17925 objects as of 21-January-2017
HD Live streaming from Space Station
objects crossing your sky now

CZ-3A DEB

Track CZ-3A DEB now!


NORAD ID: 35557
Int'l Code: 2007-003R
Perigee: 402.4 km
Apogee: 29,467.5 km
Inclination: 23.0 °
Period: 515.8 minutes
Semi major axis: 21305 km
RCS: 0.1574 m2 (medium)
Launch date: February 2, 2007
Source: People's Republic of China (PRC)
Launch site: Xichang Space Center, China (XSC)

Note: This is SATELLITE DEBRIS
Your satellite tracking list
Your tracking list is empty





NASA's NSSDC Master Catalog

Two Line Element Set (TLE):
1 35557U 07003R   17020.44188834  .00001847  00000-0  36773-2 0  9993
2 35557  22.9824  93.3870 6820870  31.8441 355.3992  2.79158932 75325
Source of the keplerian elements: AFSPC